TimeCEST,TemperatureF,Dew PointF,Humidity,Sea Level PressureIn,VisibilityMPH,Wind Direction,Wind SpeedMPH,Gust SpeedMPH,PrecipitationIn,Events,Conditions,WindDirDegrees,DateUTC
12:00 AM,33.8,28.4,81,30.33,-9999.0,East,6.9,-,N/A,,Clear,100,2013-10-03 22:00:00
12:30 AM,33.8,26.6,75,30.33,-9999.0,ESE,4.6,-,N/A,,Clear,110,2013-10-03 22:30:00
1:00 AM,33.8,26.6,75,30.33,-9999.0,East,5.8,-,N/A,,Clear,100,2013-10-03 23:00:00
1:30 AM,32.0,26.6,80,30.33,-9999.0,East,4.6,-,N/A,,Clear,100,2013-10-03 23:30:00
2:00 AM,31,27,78,30.43,12,East,8.9,,,,,90,2013-10-04 00:00:00
2:00 AM,32.0,26.6,80,30.33,-9999.0,East,5.8,-,N/A,,Clear,100,2013-10-04 00:00:00
2:30 AM,30.2,26.6,86,30.33,-9999.0,East,8.1,-,N/A,,Clear,90,2013-10-04 00:30:00
3:00 AM,32.0,28.4,87,30.33,-9999.0,East,9.2,-,N/A,,Clear,90,2013-10-04 01:00:00
3:30 AM,32.0,28.4,87,30.33,-9999.0,East,10.4,-,N/A,,Clear,90,2013-10-04 01:30:00
4:00 AM,32.0,28.4,87,30.33,-9999.0,East,5.8,-,N/A,,Clear,100,2013-10-04 02:00:00
4:30 AM,30.2,28.4,93,30.33,-9999.0,East,6.9,-,N/A,,Clear,90,2013-10-04 02:30:00
5:00 AM,32.0,28.4,87,30.33,-9999.0,East,6.9,-,N/A,,Clear,90,2013-10-04 03:00:00
5:30 AM,30.2,28.4,93,30.30,-9999.0,East,10.4,-,N/A,,Clear,90,2013-10-04 03:30:00
6:30 AM,30.2,26.6,86,30.30,-9999.0,ESE,6.9,-,N/A,,Clear,110,2013-10-04 04:30:00
7:00 AM,30.2,26.6,86,30.30,-9999.0,East,5.8,-,N/A,,Clear,100,2013-10-04 05:00:00
7:30 AM,30.2,26.6,86,30.33,-9999.0,ESE,4.6,-,N/A,,Clear,110,2013-10-04 05:30:00
8:00 AM,32,28,79,30.38,12,East,11.2,,,,Clear,90,2013-10-04 06:00:00
8:00 AM,32.0,28.4,87,30.30,-9999.0,East,10.4,-,N/A,,Clear,100,2013-10-04 06:00:00
8:30 AM,33.8,28.4,81,30.33,-9999.0,East,9.2,-,N/A,,Clear,100,2013-10-04 06:30:00
9:00 AM,35.6,30.2,81,30.33,-9999.0,ESE,6.9,-,N/A,,Clear,110,2013-10-04 07:00:00
9:30 AM,37.4,30.2,75,30.33,-9999.0,East,8.1,-,N/A,,Clear,100,2013-10-04 07:30:00
10:00 AM,39.2,30.2,70,30.33,-9999.0,East,6.9,-,N/A,,Clear,90,2013-10-04 08:00:00
10:30 AM,41.0,30.2,65,30.33,-9999.0,East,6.9,-,N/A,,Clear,80,2013-10-04 08:30:00
11:00 AM,42.8,30.2,61,30.33,-9999.0,ESE,9.2,-,N/A,,Clear,110,2013-10-04 09:00:00
11:30 AM,44.6,30.2,57,30.33,-9999.0,SE,10.4,-,N/A,,Clear,130,2013-10-04 09:30:00
12:00 PM,46.4,32.0,57,30.30,-9999.0,East,8.1,-,N/A,,Clear,90,2013-10-04 10:00:00
12:30 PM,48.2,32.0,54,30.30,-9999.0,East,6.9,-,N/A,,Clear,90,2013-10-04 10:30:00
1:00 PM,50.0,30.2,47,30.30,-9999.0,ESE,4.6,-,N/A,,Clear,120,2013-10-04 11:00:00
1:30 PM,51.8,32.0,47,30.30,-9999.0,ESE,6.9,-,N/A,,Clear,110,2013-10-04 11:30:00
2:00 PM,53,30,29,30.30,25,ESE,11.2,,,,Clear,110,2013-10-04 12:00:00
2:00 PM,53.6,32.0,44,30.27,-9999.0,SE,11.5,-,N/A,,Clear,140,2013-10-04 12:00:00
2:30 PM,53.6,30.2,41,30.27,-9999.0,SE,10.4,-,N/A,,Clear,130,2013-10-04 12:30:00
3:00 PM,55.4,30.2,38,30.27,-9999.0,SSE,9.2,20.7,N/A,,Clear,160,2013-10-04 13:00:00
3:30 PM,55.4,30.2,38,30.24,-9999.0,ESE,13.8,-,N/A,,Clear,120,2013-10-04 13:30:00
4:00 PM,55.4,30.2,38,30.24,-9999.0,SSE,10.4,-,N/A,,Clear,150,2013-10-04 14:00:00
4:30 PM,55.4,30.2,38,30.24,-9999.0,SE,11.5,-,N/A,,Clear,130,2013-10-04 14:30:00
5:00 PM,55.4,30.2,38,30.24,-9999.0,SSE,10.4,-,N/A,,Clear,150,2013-10-04 15:00:00
5:30 PM,51.8,32.0,47,30.24,-9999.0,SSE,10.4,-,N/A,,Clear,150,2013-10-04 15:30:00
6:00 PM,48.2,32.0,54,30.24,-9999.0,SE,8.1,-,N/A,,Clear,140,2013-10-04 16:00:00
6:30 PM,46.4,32.0,57,30.24,-9999.0,SE,4.6,-,N/A,,Clear,140,2013-10-04 16:30:00
7:00 PM,42.8,32.0,66,30.24,-9999.0,SSE,8.1,-,N/A,,Clear,150,2013-10-04 17:00:00
7:30 PM,44.6,30.2,57,30.24,-9999.0,SE,11.5,-,N/A,,Clear,140,2013-10-04 17:30:00
8:00 PM,43,30,48,30.29,25,SE,8.9,,,,Clear,140,2013-10-04 18:00:00
8:00 PM,42.8,30.2,61,30.24,-9999.0,SE,8.1,-,N/A,,Clear,140,2013-10-04 18:00:00
8:33 PM,41.0,30.2,65,30.24,-9999.0,SE,10.4,-,N/A,,Clear,130,2013-10-04 18:33:00
9:00 PM,41.0,30.2,65,30.24,-9999.0,ESE,6.9,-,N/A,,Clear,120,2013-10-04 19:00:00
9:30 PM,39.2,28.4,65,30.24,-9999.0,ESE,6.9,-,N/A,,Clear,120,2013-10-04 19:30:00
10:00 PM,37.4,28.4,70,30.24,-9999.0,ESE,5.8,-,N/A,,Clear,120,2013-10-04 20:00:00
10:30 PM,39.2,30.2,70,30.24,-9999.0,East,9.2,-,N/A,,Clear,100,2013-10-04 20:30:00
11:00 PM,37.4,30.2,75,30.21,-9999.0,ESE,8.1,-,N/A,,Clear,110,2013-10-04 21:00:00
11:30 PM,35.6,28.4,75,30.21,-9999.0,ESE,5.8,-,N/A,,Clear,120,2013-10-04 21:30:00